This is the latest recevied weather packets stored in our database for station/object W6SNO-1. If no packets are shown the sender has not sent any weather packets the latest 10 day(s).
| Time | Temp. | Humidity | Pressure | Rain* | Wind** | Luminosity | Snow |
|---|---|---|---|---|---|---|---|
| 1777438003 | 13.89° C | 82% | 1019.6 hPa | 0 mm | - | 0 W/m² | - |
| 1777437700 | 13.89° C | 81% | 1019.7 hPa | 0 mm | - | 0 W/m² | - |
| 1777437397 | 13.89° C | 80% | 1019.7 hPa | 0 mm | - | 0 W/m² | - |
| 1777437093 | 14.44° C | 79% | 1019.5 hPa | 0 mm | - | 0 W/m² | - |
| 1777436790 | 14.44° C | 79% | 1019.5 hPa | 0 mm | - | 0 W/m² | - |
| 1777436486 | 14.44° C | 78% | 1019.2 hPa | 0 mm | - | 0 W/m² | - |
| 1777436183 | 15° C | 78% | 1019.4 hPa | 0 mm | - | 0 W/m² | - |
| 1777435880 | 15° C | 76% | 1019.2 hPa | 0 mm | - | 0 W/m² | - |
| 1777435576 | 15° C | 75% | 1019.2 hPa | 0 mm | - | 0 W/m² | - |
| 1777434971 | 15.56° C | 73% | 1019.1 hPa | 0 mm | - | 0 W/m² | - |
| 1777434667 | 15.56° C | 73% | 1019.1 hPa | 0 mm | - | 0 W/m² | - |
| 1777433153 | 16.67° C | 65% | 1018.8 hPa | 0 mm | - | 0 W/m² | - |
| 1777432850 | 16.67° C | 65% | 1018.4 hPa | 0 mm | - | 0 W/m² | - |
| 1777432241 | 16.67° C | 65% | 1018.6 hPa | 0 mm | - | 1 W/m² | - |
| 1777431939 | 16.67° C | 65% | 1018.5 hPa | 0 mm | - | 1 W/m² | - |
| 1777431638 | 17.22° C | 65% | 1018.4 hPa | 0 mm | - | 1 W/m² | - |
| 1777431333 | 17.22° C | 65% | 1018.2 hPa | 0 mm | - | 4 W/m² | - |
| 1777431029 | 17.22° C | 65% | 1018.1 hPa | 0 mm | - | 5 W/m² | - |
| 1777430421 | 18.33° C | 64% | 1018 hPa | 0 mm | - | 13 W/m² | - |
| 1777430117 | 18.33° C | 64% | 1017.9 hPa | 0 mm | - | 13 W/m² | - |
| 1777429813 | 18.89° C | 62% | 1017.9 hPa | 0 mm | - | 21 W/m² | - |
| 1777429509 | 18.89° C | 62% | 1017.9 hPa | 0 mm | - | 21 W/m² | - |
| 1777429205 | 18.89° C | 62% | 1017.9 hPa | 0 mm | - | 23 W/m² | - |
| 1777428597 | 19.44° C | 53% | 1017.7 hPa | 0 mm | - | 31 W/m² | - |
| 1777428293 | 19.44° C | 53% | 1017.8 hPa | 0 mm | - | 31 W/m² | - |
* Rain latest hour (hover to see other rain measurements)
** Current wind speed in m/s (hover to see current wind gust speed)